Flag for Sweden Weather past 2 weeks in Stockholm, Sweden

Now
36 °F

Fog.


Feels Like: 31 °F
Forecast: 33 / 38 °F
Wind: 6 mph from Southwest

Location: Stockholm Bromma Airport

Current Time: Feb 28, 2015 at 8:32:04 AM

Latest Report: Feb 28, 2015 at 7:50 AM


Visibility: 3 mi

Pressure: 29.92 "Hg

Humidity: 93%

Dew point: 34 °F

Location of StockholmLocation

Historic Weather in Stockholm — Graph

°F

Stockholm temperature yesterday

Maximum temperature yesterday: 37 °F (at 1:50 PM)
Minimum temperature yesterday: 34 °F (at 2:20 AM)
Average temperature yesterday: 36 °F

Past Weeks' High & Low Weather Summary

 TemperatureHumidityPressure
High46 °F (Feb 19, 12:50 PM)100% (Feb 19, 5:20 AM)30.66 "Hg (Feb 19, 5:20 AM)
Low28 °F (Feb 16, 6:20 AM)47% (Feb 15, 2:50 PM)29.12 "Hg (Feb 22, 2:20 AM)
Average36 °F82%29.90 "Hg
* Reported Feb 13 7:20 AM — Feb 28 7:20 AM, Stockholm, Weather by CustomWeather, © 2015

Note: Actual official high and low records may vary slightly from our data, if they occured in-between our weather recording intervals... More about our weather records

Advertising

Stockholm weather history for previous 24 hours

 ConditionsComfort  
Time TempWeatherWind HumidityBarometerVisibility
7:20 AM
Sat, Feb 28
36 °FFog.6 mph93%29.92 "Hg2 mi
6:50 AM36 °FFog.6 mph93%29.92 "Hg3 mi
6:20 AM36 °FFog.6 mph93%29.92 "Hg2 mi
5:50 AM36 °FFog.7 mph93%29.92 "Hg2 mi
5:20 AM34 °FFog.7 mph100%29.92 "Hg2 mi
4:20 AM36 °FFog.7 mph93%29.92 "Hg2 mi
3:50 AM36 °FFog.7 mph93%29.92 "Hg2 mi
3:20 AM36 °FFog.8 mph93%29.92 "Hg3 mi
2:50 AM36 °FFog.7 mph93%29.92 "Hg3 mi
2:20 AM36 °FFog.6 mph93%29.95 "Hg3 mi
1:50 AM36 °FFog.7 mph93%29.95 "Hg3 mi
1:20 AM36 °FFog.6 mph93%29.95 "Hg3 mi
12:50 AM36 °FFog.8 mph93%29.95 "Hg3 mi
12:20 AM36 °FFog.7 mph93%29.95 "Hg4 mi
11:50 PM
Fri, Feb 27
36 °FFog.7 mph93%29.95 "Hg4 mi
11:20 PM36 °FFog.7 mph93%29.95 "Hg4 mi
10:50 PM36 °FFog.7 mph93%29.95 "Hg5 mi
10:20 PM36 °FFog.7 mph93%29.95 "Hg5 mi
9:50 PM37 °FFog.7 mph87%29.95 "Hg5 mi
9:20 PM37 °FFog.7 mph87%29.95 "Hg5 mi
8:50 PM37 °FFog.6 mph87%29.95 "Hg4 mi
8:20 PM36 °FFog.7 mph100%29.98 "Hg4 mi
7:50 PM36 °FFog.8 mph100%29.98 "Hg3 mi
7:20 PM36 °FFog.8 mph100%29.98 "Hg1 mi
6:50 PM36 °FFog.8 mph100%29.98 "Hg2 mi
6:20 PM37 °FFog.8 mph93%29.98 "Hg3 mi
5:50 PM37 °FFog.9 mph93%29.98 "Hg3 mi
5:20 PM37 °FFog.10 mph93%29.98 "Hg4 mi
4:50 PM37 °FFog.7 mph93%29.98 "Hg3 mi
4:20 PM37 °FFog.8 mph87%29.98 "Hg4 mi
3:50 PM37 °FFog.9 mph87%29.98 "Hg4 mi
3:20 PM37 °FFog.8 mph87%29.98 "Hg5 mi
2:50 PM37 °FFog.8 mph87%29.98 "Hg5 mi
2:20 PM37 °FFog.9 mph87%29.98 "Hg6 mi
1:50 PM37 °FFog.10 mph87%29.98 "Hg6 mi
1:20 PM36 °FFog.10 mph93%29.98 "Hg6 mi
12:50 PM36 °FPartly sunny.10 mph93%29.98 "HgN/A
12:20 PM36 °FPartly sunny.12 mph87%30.01 "HgN/A
11:50 AM36 °FPartly sunny.13 mph87%30.01 "HgN/A
11:20 AM36 °FPartly sunny.13 mph87%30.01 "HgN/A
10:50 AM36 °FPartly sunny.13 mph87%30.01 "HgN/A
10:20 AM36 °FPartly sunny.13 mph81%30.01 "HgN/A
9:50 AM36 °FPartly sunny.13 mph87%30.01 "HgN/A
9:20 AM36 °FPartly sunny.12 mph87%30.01 "HgN/A
8:50 AM36 °FPartly sunny.13 mph87%30.01 "HgN/A
8:20 AM36 °FPartly sunny.12 mph87%30.01 "HgN/A
Weather by CustomWeather, © 2015

See weather overviewHow to use our weather pages